When you browse on this site, cookies collect data to enhance your experience and personalize the content and advertising you see.
Visit our Privacy Policy to learn more. By continuing to use the site, you agree to this use of cookies and data.
  • en France
  • Liste des pays
  • À 7 jours
  • Température de l'eau
  • Carte météo
  • Widgets météo
  • user-avatar
    Se connecter

    Météo par heure à Dijon

    Ce jour, 16 Novembre, Samedi

    Heure Température Précipitation Vent Pression Humidité
    00:00 +1°C° 0 mm 1 m/s 727 mmHg 96%
    01:00 +1°C° 0 mm 1 m/s 727 mmHg 96%
    02:00 +1°C° 0 mm 1 m/s 727 mmHg 96%
    03:00 -1°C° 0 mm 2 m/s 728 mmHg 96%
    04:00 -1°C° 0 mm 2 m/s 728 mmHg 97%
    05:00 -1°C° 0 mm 2 m/s 728 mmHg 97%
    06:00 -1°C° 0 mm 2 m/s 729 mmHg 97%
    07:00 +1°C° 0 mm 2 m/s 729 mmHg 95%
    08:00 +1°C° 0 mm 2 m/s 730 mmHg 94%
    09:00 +2°C° 0 mm 2 m/s 730 mmHg 92%
    10:00 +2°C° 0 mm 3 m/s 730 mmHg 88%
    11:00 +3°C° 0 mm 3 m/s 731 mmHg 85%
    12:00 +4°C° 0 mm 3 m/s 731 mmHg 80%
    13:00 +4°C° 0 mm 3 m/s 731 mmHg 80%
    14:00 +4°C° 0 mm 3 m/s 730 mmHg 80%
    15:00 +5°C° 0 mm 2 m/s 730 mmHg 80%
    16:00 +4°C° 0 mm 2 m/s 731 mmHg 84%
    17:00 +4°C° 0 mm 1 m/s 731 mmHg 87%
    18:00 +3°C° 0 mm 1 m/s 731 mmHg 90%
    19:00 +2°C° 0 mm 1 m/s 731 mmHg 91%
    20:00 +2°C° 0 mm 1 m/s 732 mmHg 91%
    21:00 +2°C° 0 mm 1 m/s 732 mmHg 92%
    22:00 +2°C° 0 mm 1 m/s 732 mmHg 92%
    23:00 +2°C° 0 mm 1 m/s 732 mmHg 92%

    Demain, 17 Novembre, Dimanche

    Heure Température Précipitation Vent Pression Humidité
    00:00 +2°C° 0 mm 1 m/s 732 mmHg 92%
    01:00 +1°C° 0 mm 1 m/s 731 mmHg 92%
    02:00 +1°C° 0 mm 1 m/s 731 mmHg 92%
    03:00 +1°C° 0 mm 1 m/s 731 mmHg 92%
    04:00 +1°C° 0 mm 1 m/s 731 mmHg 92%
    05:00 +1°C° 0 mm 1 m/s 730 mmHg 92%
    06:00 -1°C° 0 mm 2 m/s 730 mmHg 92%
    07:00 +1°C° 0 mm 2 m/s 730 mmHg 89%
    08:00 +2°C° 0 mm 2 m/s 730 mmHg 85%
    09:00 +4°C° 0 mm 2 m/s 730 mmHg 82%
    10:00 +5°C° 0 mm 2 m/s 730 mmHg 79%
    11:00 +5°C° 0 mm 3 m/s 730 mmHg 75%
    12:00 +7°C° 0 mm 3 m/s 730 mmHg 72%
    13:00 +5°C° 0.2 mm 3 m/s 730 mmHg 77%
    14:00 +5°C° 0.2 mm 3 m/s 729 mmHg 81%
    15:00 +4°C° 0.2 mm 3 m/s 729 mmHg 86%
    16:00 +5°C° 0.3 mm 2 m/s 729 mmHg 88%
    17:00 +4°C° 0.3 mm 2 m/s 729 mmHg 90%
    18:00 +3°C° 0.3 mm 2 m/s 729 mmHg 92%
    19:00 +3°C° 0.1 mm 2 m/s 729 mmHg 93%
    20:00 +3°C° 0.1 mm 2 m/s 729 mmHg 93%
    21:00 +3°C° 0.1 mm 2 m/s 729 mmHg 93%
    22:00 +3°C° 0.1 mm 2 m/s 730 mmHg 93%
    23:00 +3°C° 0.1 mm 2 m/s 730 mmHg 92%

    Après-demain, 18 Novembre, Lundi

    Heure Température Précipitation Vent Pression Humidité
    00:00 +3°C° 0.1 mm 2 m/s 730 mmHg 92%
    01:00 +2°C° 0.1 mm 2 m/s 730 mmHg 93%
    02:00 +1°C° 0.1 mm 3 m/s 730 mmHg 93%
    03:00 +1°C° 0.1 mm 3 m/s 730 mmHg 93%
    04:00 +1°C° 0.1 mm 3 m/s 731 mmHg 93%
    05:00 +2°C° 0.1 mm 2 m/s 731 mmHg 93%
    06:00 +2°C° 0.1 mm 2 m/s 731 mmHg 94%
    07:00 +1°C° 0.1 mm 3 m/s 732 mmHg 92%
    08:00 +2°C° 0.1 mm 3 m/s 732 mmHg 91%
    09:00 +2°C° 0.1 mm 3 m/s 732 mmHg 90%
    10:00 +2°C° 0 mm 3 m/s 732 mmHg 88%
    11:00 +3°C° 0 mm 3 m/s 732 mmHg 87%
    12:00 +3°C° 0 mm 4 m/s 732 mmHg 85%
    13:00 +3°C° 0.1 mm 4 m/s 732 mmHg 85%
    14:00 +3°C° 0.1 mm 3 m/s 732 mmHg 85%
    15:00 +3°C° 0.1 mm 3 m/s 732 mmHg 86%
    16:00 +3°C° 0 mm 3 m/s 732 mmHg 87%
    17:00 +2°C° 0 mm 3 m/s 732 mmHg 88%
    18:00 +2°C° 0 mm 3 m/s 732 mmHg 89%
    19:00 +1°C° 0 mm 4 m/s 732 mmHg 89%
    20:00 +1°C° 0 mm 4 m/s 732 mmHg 90%
    21:00 +1°C° 0 mm 4 m/s 732 mmHg 91%
    22:00 +1°C° 0 mm 4 m/s 732 mmHg 91%
    23:00 +1°C° 0 mm 4 m/s 732 mmHg 91%

    19 Novembre, Mardi

    Heure Température Précipitation Vent Pression Humidité
    00:00 +1°C° 0 mm 4 m/s 732 mmHg 91%
    01:00 +1°C° 0.1 mm 5 m/s 732 mmHg 92%
    02:00 +1°C° 0.1 mm 5 m/s 732 mmHg 92%
    03:00 +1°C° 0.1 mm 5 m/s 732 mmHg 92%
    04:00 +1°C° 0.1 mm 5 m/s 732 mmHg 93%
    05:00 +3°C° 0.1 mm 4 m/s 733 mmHg 93%
    06:00 +3°C° 0.1 mm 4 m/s 733 mmHg 93%
    07:00 +3°C° 0.1 mm 4 m/s 733 mmHg 92%
    08:00 +3°C° 0.1 mm 4 m/s 734 mmHg 92%
    09:00 +3°C° 0.1 mm 4 m/s 734 mmHg 92%
    10:00 +3°C° 0 mm 4 m/s 734 mmHg 91%
    11:00 +3°C° 0 mm 4 m/s 734 mmHg 90%
    12:00 +3°C° 0 mm 4 m/s 733 mmHg 89%
    13:00 +3°C° 0 mm 4 m/s 733 mmHg 88%
    14:00 +3°C° 0 mm 4 m/s 733 mmHg 88%
    15:00 +3°C° 0 mm 4 m/s 733 mmHg 87%
    16:00 +3°C° 0 mm 3 m/s 733 mmHg 89%
    17:00 +2°C° 0 mm 3 m/s 733 mmHg 92%
    18:00 +3°C° 0 mm 2 m/s 733 mmHg 95%
    19:00 +2°C° 0 mm 2 m/s 733 mmHg 94%
    20:00 +2°C° 0 mm 2 m/s 733 mmHg 94%
    21:00 +2°C° 0 mm 2 m/s 733 mmHg 94%
    22:00 +2°C° 0 mm 2 m/s 733 mmHg 93%
    23:00 +1°C° 0 mm 2 m/s 733 mmHg 93%

    20 Novembre, Mercredi

    Heure Température Précipitation Vent Pression Humidité
    00:00 +1°C° 0 mm 2 m/s 733 mmHg 93%
    01:00 -1°C° 0 mm 2 m/s 733 mmHg 93%
    02:00 -1°C° 0 mm 2 m/s 733 mmHg 93%
    03:00 -1°C° 0 mm 2 m/s 733 mmHg 94%
    04:00 -1°C° 0 mm 2 m/s 733 mmHg 94%
    05:00 -1°C° 0 mm 2 m/s 733 mmHg 94%
    06:00 -1°C° 0 mm 2 m/s 732 mmHg 94%
    07:00 +1°C° 0 mm 2 m/s 733 mmHg 88%
    08:00 +1°C° 0 mm 3 m/s 733 mmHg 83%
    09:00 +2°C° 0 mm 3 m/s 733 mmHg 78%
    10:00 +3°C° 0 mm 4 m/s 732 mmHg 75%
    11:00 +5°C° 0 mm 5 m/s 732 mmHg 72%
    12:00 +6°C° 0 mm 5 m/s 732 mmHg 69%
    13:00 +6°C° 0 mm 4 m/s 732 mmHg 73%
    14:00 +6°C° 0 mm 4 m/s 731 mmHg 76%
    15:00 +7°C° 0 mm 3 m/s 731 mmHg 80%
    16:00 +5°C° 0 mm 3 m/s 731 mmHg 81%
    17:00 +5°C° 0 mm 3 m/s 731 mmHg 82%
    18:00 +4°C° 0 mm 3 m/s 731 mmHg 83%
    19:00 +4°C° 0 mm 3 m/s 731 mmHg 81%
    20:00 +5°C° 0 mm 2 m/s 731 mmHg 80%
    21:00 +5°C° 0 mm 2 m/s 731 mmHg 78%
    22:00 +5°C° 0 mm 2 m/s 730 mmHg 76%
    23:00 +4°C° 0 mm 2 m/s 730 mmHg 73%

    21 Novembre, Jeudi

    Heure Température Précipitation Vent Pression Humidité
    00:00 +4°C° 0 mm 2 m/s 730 mmHg 71%
    01:00 +4°C° 0.1 mm 2 m/s 730 mmHg 71%
    02:00 +5°C° 0.1 mm 2 m/s 729 mmHg 71%
    03:00 +5°C° 0.1 mm 2 m/s 729 mmHg 71%
    04:00 +4°C° 0.2 mm 2 m/s 729 mmHg 73%
    05:00 +4°C° 0.2 mm 2 m/s 729 mmHg 76%
    06:00 +4°C° 0.2 mm 2 m/s 729 mmHg 78%
    07:00 +4°C° 0.2 mm 2 m/s 729 mmHg 79%
    08:00 +5°C° 0.2 mm 2 m/s 729 mmHg 79%
    09:00 +4°C° 0.2 mm 3 m/s 729 mmHg 80%
    10:00 +5°C° 0 mm 3 m/s 728 mmHg 75%
    11:00 +7°C° 0 mm 3 m/s 728 mmHg 71%
    12:00 +8°C° 0 mm 3 m/s 728 mmHg 67%
    13:00 +8°C° 0 mm 3 m/s 727 mmHg 69%
    14:00 +8°C° 0 mm 3 m/s 727 mmHg 71%
    15:00 +7°C° 0 mm 3 m/s 727 mmHg 74%
    16:00 +7°C° 0.1 mm 3 m/s 727 mmHg 76%
    17:00 +6°C° 0.1 mm 2 m/s 728 mmHg 78%
    18:00 +6°C° 0.1 mm 2 m/s 728 mmHg 80%
    19:00 +6°C° 0.2 mm 2 m/s 728 mmHg 81%
    20:00 +6°C° 0.2 mm 2 m/s 728 mmHg 81%
    21:00 +6°C° 0.2 mm 2 m/s 728 mmHg 82%
    22:00 +6°C° 0 mm 2 m/s 728 mmHg 82%
    23:00 +6°C° 0 mm 2 m/s 728 mmHg 82%
    Voir plus